TimeMST,TemperatureF,Dew PointF,Humidity,Sea Level PressureIn,VisibilityMPH,Wind Direction,Wind SpeedMPH,Gust SpeedMPH,PrecipitationIn,Events,Conditions,WindDirDegrees,DateUTC
12:53 AM,39.0,25.0,57,29.94,10.0,WSW,13.8,-,0.00,,Overcast,240,2013-01-26 07:53:00
1:53 AM,39.9,25.0,55,29.90,10.0,SW,10.4,-,N/A,,Overcast,220,2013-01-26 08:53:00
2:53 AM,39.9,24.1,53,29.89,10.0,SW,9.2,-,N/A,,Overcast,230,2013-01-26 09:53:00
3:53 AM,39.9,24.1,53,29.87,10.0,SW,11.5,-,N/A,,Scattered Clouds,230,2013-01-26 10:53:00
4:53 AM,39.9,24.1,53,29.86,10.0,WSW,17.3,-,N/A,,Partly Cloudy,250,2013-01-26 11:53:00
5:53 AM,39.0,24.1,55,29.89,10.0,WSW,11.5,-,N/A,,Clear,240,2013-01-26 12:53:00
6:53 AM,36.0,24.1,62,29.91,10.0,West,8.1,-,N/A,,Clear,280,2013-01-26 13:53:00
7:53 AM,39.0,24.1,55,29.89,10.0,SSW,10.4,-,N/A,,Scattered Clouds,210,2013-01-26 14:53:00
8:53 AM,37.9,24.1,57,29.89,10.0,SW,11.5,-,N/A,,Scattered Clouds,230,2013-01-26 15:53:00
9:53 AM,41.0,26.1,55,29.88,10.0,SW,11.5,-,N/A,,Scattered Clouds,220,2013-01-26 16:53:00
10:53 AM,45.0,25.0,46,29.88,10.0,SW,13.8,-,N/A,,Scattered Clouds,230,2013-01-26 17:53:00
11:53 AM,48.0,24.1,39,29.85,10.0,SW,10.4,-,N/A,,Scattered Clouds,230,2013-01-26 18:53:00
12:53 PM,50.0,26.1,39,29.81,10.0,SSE,9.2,-,N/A,,Partly Cloudy,160,2013-01-26 19:53:00
1:53 PM,52.0,26.1,37,29.77,10.0,SSW,6.9,-,N/A,,Partly Cloudy,210,2013-01-26 20:53:00
2:53 PM,53.1,26.1,35,29.75,10.0,Calm,Calm,-,N/A,,Partly Cloudy,0,2013-01-26 21:53:00
3:53 PM,53.1,26.1,35,29.73,10.0,South,5.8,-,N/A,,Partly Cloudy,180,2013-01-26 22:53:00
4:53 PM,50.0,26.1,39,29.73,10.0,WSW,5.8,-,N/A,,Partly Cloudy,250,2013-01-26 23:53:00
5:53 PM,48.0,25.0,41,29.73,10.0,SSW,4.6,-,N/A,,Partly Cloudy,200,2013-01-27 00:53:00
6:53 PM,43.0,24.1,47,29.74,10.0,WSW,9.2,-,N/A,,Partly Cloudy,250,2013-01-27 01:53:00
7:53 PM,41.0,24.1,51,29.71,10.0,WSW,8.1,-,N/A,,Partly Cloudy,250,2013-01-27 02:53:00
8:53 PM,42.1,24.1,49,29.70,10.0,SW,8.1,-,N/A,,Scattered Clouds,220,2013-01-27 03:53:00
9:53 PM,41.0,25.0,53,29.70,10.0,WSW,9.2,-,N/A,,Partly Cloudy,250,2013-01-27 04:53:00
10:53 PM,39.9,25.0,55,29.68,10.0,WSW,10.4,-,N/A,,Partly Cloudy,240,2013-01-27 05:53:00
11:53 PM,37.9,25.0,60,29.69,10.0,WNW,11.5,-,N/A,,Partly Cloudy,300,2013-01-27 06:53:00